Location: Melara
(45.0500°N, 11.1833°E)
Time: 20:36:40
(UTC+00:00)

GP-B - Pass Details

Date: 26 May 2022
Orbit: 630 x 634 km, 89.8° (Epoch: 03 July)

Event Time Altitude Azimuth Distance (km) Brightness Sun altitude
Rises 00:50:55 0° 355° (N) 2,941 7.6 -20.1°
Reaches altitude 10° 00:53:13 10° 349° (N) 2,027 6.5 -20.0°
Maximum altitude 00:57:27 45° 278° (W) 870 3.6 -19.6°
Enters shadow 00:58:21 39° 244° (WSW) 951 3.6 -19.6°
